Regional Weather Roundup
Issued by NWS Memphis, TN

Current Version | Previous Version | Text Only | Print | Product List | Glossary On
Versions: 1 2 3 4 5 6 7 8 9 10 11 12 13 14 15 16 17 18 19 20 21 22 23 24 25 26 27 28 29 30 31 32 33 34 35 36 37 38 39 40 41 42 43 44 45 46 47 48 49 50
000
ASUS44 KMEG 272310
RWRMEG
MEMPHIS CWA HOURLY WEATHER ROUNDUP
NATIONAL WEATHER SERVICE MEMPHIS TN
600 PM CDT TUE JUN 27 2017

...WEST TENNESSEE...

CITY           SKY/WX    TMP DP  RH WIND       PRES   REMARKS
MEMPHIS INTL   MOSUNNY   83  61  47 CALM      30.03F
NWS MEMPHIS      N/A     83 N/A N/A MISG        N/A
JACKSON        SUNNY     82  63  52 E5        30.05F
SOMERVILLE     MOSUNNY   82  64  54 CALM      30.03F
BOLIVAR        PTSUNNY   82  63  51 VRB5      30.04F
LEXINGTON      SUNNY     81  59  47 CALM      30.05F
SELMER         SUNNY     79  63  57 NE5       30.05F
SAVANNAH       SUNNY     81  61  50 CALM      30.04F
UNION CITY     PTSUNNY   81  57  44 VRB6      30.04S
HUNTINGDON     SUNNY     81  59  47 NE7       30.04F


...EASTERN ARKANSAS...

CITY           SKY/WX    TMP DP  RH WIND       PRES   REMARKS
JONESBORO      SUNNY     82  66  58 VRB3      30.03F
WEST MEMPHIS   MOSUNNY   83  63  50 N7        30.01F
BATESVILLE     MOSUNNY   82  63  51 S6        30.04F
WALNUT RIDGE   SUNNY     79  63  57 CALM      30.04F
BLYTHEVILLE    MOSUNNY   82  64  54 E6        30.04F
SEARCY         SUNNY     85  66  53 SE5       30.04F
STUTTGART      MOSUNNY   82  57  42 E6        30.03F
PINE BLUFF     MOSUNNY   84  65  52 SE6       30.01F
MONTICELLO     SUNNY     85  60  42 E7        30.01F


...NORTH MISSISSIPPI...

CITY           SKY/WX    TMP DP  RH WIND       PRES   REMARKS
TUPELO         SUNNY     84  59  42 N7        30.03F
OXFORD         MOSUNNY   82  61  47 NE8       30.04F
BATESVILLE     SUNNY     85  63  47 CALM      30.03F
OLIVE BRANCH   MOSUNNY  N/A N/A N/A VRB3      30.03F
TUNICA           N/A     82  59  44 NE5       30.03F
CLARKSDALE       N/A     84  66  54 NE8       30.02F
CORINTH        SUNNY     82  61  47 NW3       30.04F
GREENWOOD      SUNNY     86  62  44 E3        30.01S
STARKVILLE     MOSUNNY   84  61  45 NE8       30.03F
GOLDEN TRIANGL SUNNY     84  61  45 NE7       29.98F


...SOUTHEAST MISSOURI...

CITY           SKY/WX    TMP DP  RH WIND       PRES   REMARKS
KENNETT        SUNNY     81  63  54 CALM      30.03F
MALDEN         SUNNY     82  55  39 SE5       30.05F
WEST PLAINS    MOSUNNY   79  62  56 SE7       30.06F
POPLAR BLUFF   MOSUNNY   79  59  50 S5        30.04F
CAPE GIRARDEAU SUNNY     79  55  43 S3        30.04F


...NORTHWEST ALABAMA...

CITY           SKY/WX    TMP DP  RH WIND       PRES   REMARKS
MUSCLE SHOALS  MOSUNNY   82  60  47 NE3       30.06F


...MIDDLE TENNESSEE...

CITY           SKY/WX    TMP DP  RH WIND       PRES   REMARKS
NASHVILLE      MOSUNNY   81  54  39 E7        30.07F
CLARKSVILLE    MOSUNNY   80  52  37 N5        30.06F
COLUMBIA       SUNNY     81  54  39 NE6       30.04F


...WESTERN KENTUCKY...

CITY           SKY/WX    TMP DP  RH WIND       PRES   REMARKS
PADUCAH        SUNNY     80  53  39 SE6       30.05F
FORT CAMPBELL  MOSUNNY   79  53  39 NE3       30.06F


...CENTRAL ARKANSAS...

CITY           SKY/WX    TMP DP  RH WIND       PRES   REMARKS
LITTLE ROCK    PTSUNNY   82  63  52 S7        30.02F


SKY/WX REPORTED AS FAIR MEANS FEW OR NO CLOUDS BELOW
12 THOUSAND FEET.




USA.gov is the U.S. government's official web portal to all federal, state and local government web resources and services.